CAPE
0 1 9 5 4 1 5 235 1002 817 947 779 768 690 611 506 399 157 313 211 498 1002 1138 1142 482 261 244 108 166 456 446 237 145 69 8 0 0 0 5 1 0 0 0
0 0 1 7 5 5 5 3 447 663 684 702 664 626 741 595 418 242 70 391 556 660 1078 1051 970 868 464 328 626 602 419 163 94 19 1 0 0 0 5 0 0 0 0
0 0 2 2 5 7 5 4 139 354 425 437 319 554 711 589 431 389 468 497 519 624 772 973 885 876 769 699 678 581 375 125 38 0 0 0 0 0 0 0 0 0 0
2 0 1 1 2 5 4 3 6 220 266 297 369 353 541 591 348 219 160 393 485 551 553 715 694 698 638 683 680 579 365 113 24 0 0 0 1 6 2 0 0 0 0
1 0 2 1 2 2 4 4 3 5 81 80 133 269 281 373 351 156 52 0 412 564 569 630 677 653 528 620 682 614 469 168 52 2 0 0 9 10 6 0 0 0 0
1 0 2 3 2 2 2 3 2 3 4 54 44 64 120 203 292 273 174 233 367 503 568 830 765 610 504 612 641 580 549 318 111 20 0 0 5 7 5 2 0 0 0
2 1 0 0 3 2 2 2 3 3 1 2 6 4 48 75 135 187 141 114 48 298 494 447 636 436 387 481 467 535 490 429 238 88 0 1 4 8 6 2 0 0 0
1 5 1 0 1 2 4 1 1 2 3 1 25 15 4 11 0 138 213 65 12 174 510 429 448 380 393 334 334 397 458 437 364 185 9 7 7 7 4 4 3 3 0
1 5 6 4 0 1 2 3 1 1 3 3 2 15 32 0 0 92 117 201 231 361 511 554 426 381 335 278 243 244 285 370 361 292 91 0 8 5 5 2 3 3 1
0 7 3 5 3 1 2 2 2 1 2 3 2 2 7 1 29 66 32 39 145 254 437 596 479 389 307 230 161 150 104 164 299 308 206 18 1 5 3 3 3 3 1
0 3 2 4 5 3 2 1 4 1 1 2 2 3 4 10 3 2 16 0 1 59 384 490 641 416 303 213 184 138 58 49 101 292 236 67 2 3 3 1 0 2 4
0 1 2 2 4 7 4 1 2 5 1 2 2 2 2 4 61 22 2 13 0 0 92 527 546 688 443 303 226 169 59 36 15 160 259 106 5 0 0 0 0 2 2
1 6 3 2 2 7 2 2 2 3 2 2 1 2 2 2 2 10 17 7 40 15 173 503 563 625 693 454 426 204 42 21 8 36 199 164 16 0 0 0 0 0 2
2 6 6 4 4 5 6 1 1 1 2 3 1 2 2 2 3 5 1 1 65 92 289 360 560 585 626 672 578 359 190 41 0 0 55 132 45 0 0 0 0 0 1
7 12 24 9 10 9 19 2 0 0 2 2 2 2 2 1 3 3 22 9 5 138 117 325 341 489 497 556 568 363 474 40 0 0 0 10 15 0 0 0 0 0 0
12 17 20 14 14 14 18 0 0 0 2 2 3 1 2 2 3 2 9 4 0 8 87 106 225 297 442 419 459 260 368 237 14 4 0 0 0 0 0 0 0 0 0
4 13 19 23 1 13 9 0 0 0 1 2 2 1 2 1 3 3 4 3 2 1 1 0 30 197 332 419 400 178 126 74 0 4 0 0 0 0 0 0 0 0 0
0 8 17 26 0 5 0 0 1 0 1 1 1 1 2 2 3 3 2 16 9 2 19 0 0 0 166 282 369 232 104 0 0 0 0 0 0 0 0 0 0 0 0
0 0 6 11 4 3 0 0 1 2 1 4 2 1 1 1 4 6 6 2 3 0 0 10 0 0 0 242 411 290 135 52 0 0 0 0 0 0 0 0 0 0 0
0 0 14 16 6 11 0 0 1 0 1 4 4 2 2 2 3 4 3 6 3 10 2 1 2 1 0 0 93 359 208 61 22 0 0 0 0 0 0 0 0 0 0
0 0 5 19 3 15 0 0 0 0 1 2 2 3 2 3 2 3 5 7 2 4 32 8 0 1 0 0 0 123 293 197 96 17 0 0 0 0 0 0 0 0 0
0 0 1 6 0 12 0 0 0 0 1 1 1 2 2 2 3 4 4 3 3 2 11 1 0 0 0 0 0 0 176 193 139 10 2 0 0 0 0 0 0 0 0
0 0 0 1 0 5 1 1 0 0 0 1 3 1 2 3 2 3 2 2 2 0 0 0 4 0 0 0 0 1 2 168 142 159 102 81 0 0 0 0 0 0 0
3 0 0 3 3 2 0 1 2 0 0 0 1 1 2 1 1 2 3 3 2 1 1 2 2 1 1 1 6 0 0 0 120 159 211 170 0 0 0 0 0 0 0
0 0 0 0 0 1 0 0 1 1 0 0 1 2 1 1 1 1 2 2 4 3 0 0 0 0 0 0 0 9 0 0 0 1 104 149 3 10 0 0 0 0 0
2 0 0 0 0 5 0 1 1 2 0 0 1 1 0 1 2 2 1 3 2 3 3 0 0 0 1 0 0 0 1 20 36 0 1 173 10 3 0 0 0 0 0
CIN
-0 -0 -0 -0 -0 -0 -0 -61 -12 -33 -16 -26 -25 -23 -51 -59 -53 -79 -55 -64 -13 -35 -53 -34 -120 -137 -123 -210 -149 -44 -34 -101 -147 -184 -245 -0 -0 -0 -29 -37 -0 -0 -0
-0 -0 -0 -0 -0 -0 -0 -0 -5 -17 -25 -21 -23 -31 -28 -53 -47 -62 -140 -71 -29 -30 -40 -53 -57 -44 -73 -96 -29 -17 -35 -114 -154 -217 -54 -0 -0 -0 -29 -0 -0 -0 -0
-0 -0 -0 -0 -0 -0 -0 -0 -3 -6 -15 -17 -23 -32 -23 -50 -63 -25 -70 -70 -51 -50 -53 -42 -63 -47 -38 -26 -21 -17 -39 -114 -176 -9 -0 -0 -0 -0 -0 -0 -0 -0 -0
-0 -0 -0 -0 -0 -0 -0 -0 -0 -0 -17 -26 -11 -23 -18 -41 -64 -55 -72 -70 -48 -47 -60 -59 -63 -80 -57 -29 -14 -13 -37 -114 -181 -0 -0 -0 -11 -26 -35 -0 -0 -0 -0
-0 -0 -0 -0 -0 -0 -0 -0 -0 -4 -27 -82 -35 -14 -24 -19 -45 -63 -107 -0 -98 -21 -33 -69 -45 -61 -77 -38 -10 -4 -9 -88 -154 -109 -0 -0 -13 -16 -26 -0 -0 -0 -0
-0 -0 -0 -0 -0 -0 -0 -0 -0 -0 -6 -57 -64 -40 -70 -39 -29 -41 -56 -95 -90 -35 -26 -36 -31 -25 -72 -34 -13 -6 -2 -32 -110 -210 -0 -1 -16 -6 -16 -13 -0 -0 -0
-0 -0 -0 -0 -0 -0 -0 -0 -0 -0 -0 -0 -0 -66 -86 -104 -54 -19 -59 -112 -193 -99 -68 -38 -39 -60 -79 -39 -38 -9 -7 -15 -58 -144 -0 -23 -16 -4 -7 -8 -0 -0 -0
-7 -1 -0 -0 -0 -0 -0 -0 -0 -0 -0 -0 -1 -36 -19 -66 -0 -9 -5 -72 -183 -128 -55 -36 -36 -73 -73 -70 -69 -55 -14 -20 -25 -93 -98 -20 -16 -6 -3 -3 -5 -4 -0
-6 -3 -4 -0 -0 -0 -0 -0 -0 -0 -0 -0 -0 -0 -2 -0 -0 -27 -20 -45 -36 -40 -25 -32 -46 -64 -75 -80 -97 -91 -79 -33 -42 -63 -166 -1 -17 -5 -1 -1 -1 -1 -5
-0 -2 -2 -2 -2 -1 -0 -0 -0 -0 -0 -0 -0 -0 -4 -5 -5 -3 -25 -65 -42 -12 -15 -31 -57 -56 -67 -74 -138 -129 -178 -118 -62 -65 -108 -301 -11 -5 -2 -1 -0 -0 -2
-0 -0 -0 -2 -3 -2 -0 -0 -0 -0 -0 -0 -0 -0 -0 -3 -30 -31 -12 -0 -89 -76 -34 -21 -25 -50 -64 -92 -140 -149 -212 -223 -156 -72 -101 -235 -256 -13 -3 -2 -0 -0 -0
-0 -0 -1 -0 -5 -0 -1 -0 -0 -0 -0 -0 -0 -0 -0 -0 -1 -15 -0 -0 -0 -0 -89 -23 -21 -22 -58 -73 -136 -180 -227 -258 -266 -140 -102 -204 -236 -0 -0 -0 -0 -0 -0
-1 -2 -2 -1 -2 -2 -1 -0 -0 -0 -0 -0 -0 -0 -0 -0 -0 -5 -21 -0 -5 -11 -16 -1 -17 -30 -23 -53 -70 -173 -249 -296 -320 -267 -146 -169 -335 -0 -0 -0 -0 -0 -0
-1 -2 -4 -1 -1 -2 -2 -1 -0 -0 -0 -0 -0 -0 -0 -0 -0 -7 -21 -0 -0 -20 -9 -14 -5 -17 -12 -17 -29 -127 -166 -278 -0 -0 -277 -209 -292 -0 -0 -0 -0 -0 -0
-4 -4 -2 -7 -7 -4 -2 -3 -0 -0 -0 -0 -0 -0 -0 -0 -0 -0 -4 -3 -13 -0 -0 -10 -26 -34 -46 -48 -60 -114 -96 -313 -0 -0 -0 -291 -315 -0 -0 -0 -0 -0 -0
-9 -6 -3 -3 -0 -7 -0 -3 -0 -0 -0 -0 -0 -0 -0 -0 -0 -0 -0 -19 -27 -5 -1 -16 -45 -82 -79 -66 -68 -118 -144 -193 -356 -257 -0 -0 -0 -0 -0 -0 -0 -0 -0
-10 -6 -3 -1 -3 -0 -1 -0 -0 -0 -0 -0 -0 -0 -0 -0 -0 -0 -0 -12 -0 -6 -0 -0 -19 -42 -48 -50 -39 -118 -202 -241 -0 -125 -0 -0 -0 -0 -0 -0 -0 -0 -0
-0 -5 -2 -0 -0 -7 -0 -0 -1 -0 -0 -0 -0 -0 -0 -0 -0 -0 -0 -11 -3 -12 -3 -0 -0 -0 -15 -36 -20 -84 -185 -1 -0 -0 -0 -0 -0 -0 -0 -0 -0 -0 -0
-0 -0 -4 -1 -3 -2 -0 -0 -0 -0 -0 -0 -0 -0 -0 -0 -0 -0 -0 -0 -29 -0 -5 -11 -0 -0 -0 -18 -2 -18 -111 -200 -0 -0 -0 -0 -0 -0 -0 -0 -0 -0 -0
-0 -0 -2 -2 -0 -0 -0 -0 -0 -0 -1 -0 -0 -0 -0 -0 -0 -0 -0 -0 -0 -35 -16 -23 -4 -0 -0 -0 -8 -9 -32 -136 -167 -0 -0 -0 -0 -0 -0 -0 -0 -0 -0
-0 -1 -2 -0 -2 -0 -0 -0 -0 -0 -1 -0 -0 -0 -0 -0 -0 -0 -0 -0 -0 -6 -15 -7 -0 -0 -0 -0 -0 -18 -4 -76 -163 -250 -0 -0 -0 -0 -0 -0 -0 -0 -0
-3 -4 -2 -1 -1 -0 -0 -0 -0 -1 -0 -1 -0 -0 -0 -0 -0 -0 -0 -0 -0 -0 -1 -0 -0 -0 -0 -0 -0 -0 -0 -10 -28 -85 -44 -0 -0 -0 -0 -0 -0 -0 -0
-0 -0 -1 -0 -0 -0 -0 -0 -1 -4 -0 -0 -0 -0 -0 -0 -0 -0 -0 -0 -0 -0 -0 -0 -13 -7 -0 -0 -0 -11 -25 -2 -30 -108 -155 -179 -0 -0 -0 -0 -0 -0 -0
-1 -0 -0 -0 -1 -0 -0 -0 -2 -1 -0 -0 -0 -0 -0 -0 -0 -0 -0 -0 -0 -0 -0 -0 -0 -0 -6 -14 -19 -0 -0 -44 -23 -43 -47 -24 -0 -0 -0 -0 -0 -0 -0
-1 -5 -0 -1 -0 -0 -0 -1 -1 -0 -0 -0 -0 -0 -0 -0 -0 -0 -0 -0 -0 -0 -0 -0 -0 -0 -0 -18 -6 -14 -0 -0 -0 -3 -47 -20 -100 -103 -0 -0 -0 -0 -0
-1 -0 -4 -2 -0 -0 -0 -0 -0 -0 -0 -0 -0 -0 -0 -0 -0 -0 -0 -0 -0 -0 -0 -0 -0 -0 -0 -0 -0 -0 -12 -0 -1 -0 -19 -11 -103 -101 -1 -0 -0 -0 -0
Wind_Speed
33 34 33 34 31 32 32 28 20 20 25 24 30 27 26 30 21 12 9 39 45 12 15 14 12 12 12 12 13 12 11 8 8 6 2 3 2 1 2 5 7 9 10
34 35 36 34 33 32 33 33 27 23 22 27 30 33 28 33 25 25 13 14 42 13 14 14 13 12 12 12 13 12 11 9 6 6 6 2 3 4 1 6 6 7 8
34 35 34 35 35 35 36 32 30 26 27 27 27 36 31 32 31 25 19 25 28 15 14 14 14 12 12 14 14 14 12 7 6 5 6 5 2 3 1 5 6 6 5
34 34 34 35 36 36 32 26 28 29 32 29 30 36 36 32 34 31 25 24 34 27 18 16 15 14 12 14 16 15 17 9 11 7 5 5 4 5 4 6 6 4 4
34 33 34 35 35 35 34 33 30 34 39 36 34 31 36 39 32 35 30 29 28 34 26 20 18 16 15 17 16 18 24 18 9 8 7 12 10 11 8 7 6 5 8
34 33 33 34 35 35 34 33 34 36 40 42 39 37 34 37 37 35 30 26 27 36 32 26 25 24 17 19 16 17 27 38 25 12 22 24 14 13 14 13 11 10 12
35 34 34 34 34 34 36 35 33 37 41 35 40 41 39 38 40 41 41 28 33 37 35 35 32 31 30 22 17 15 29 40 40 34 27 25 17 13 15 13 12 13 12
35 34 34 34 34 34 34 34 34 34 33 32 39 45 44 43 40 42 44 35 35 33 38 37 37 32 33 36 34 19 41 44 43 37 31 28 16 12 14 13 11 10 10
35 34 34 34 33 32 33 34 35 36 36 37 36 41 42 51 44 37 39 34 32 37 39 38 39 36 33 39 36 40 48 46 45 44 38 33 23 18 17 18 15 13 13
35 35 34 33 32 32 32 34 34 37 38 40 37 35 40 33 41 41 37 37 36 41 45 41 41 41 36 41 39 43 46 49 47 45 44 37 34 21 17 21 21 21 16
35 34 34 33 32 32 33 33 34 35 37 39 40 41 43 43 50 44 34 42 39 42 44 43 41 40 40 39 39 44 47 50 50 34 41 38 31 18 13 15 17 22 17
35 34 35 33 32 32 32 33 33 35 37 39 40 40 41 39 40 50 46 40 37 44 42 41 43 40 38 38 39 43 49 51 52 49 28 30 23 22 14 12 13 20 18
36 35 35 34 32 32 32 34 34 34 36 37 40 41 43 47 43 42 46 45 36 35 38 41 43 40 38 38 39 41 48 55 54 54 23 23 24 22 16 15 14 16 18
35 35 34 34 33 33 33 34 34 33 34 37 39 40 42 43 47 44 50 52 41 39 36 39 43 42 41 40 39 37 43 53 55 54 40 32 26 22 19 17 16 16 18
35 35 34 34 33 33 32 33 35 34 34 35 36 39 40 41 42 44 45 46 45 45 44 42 38 43 43 41 41 38 42 47 49 55 41 30 27 25 25 22 20 18 17
35 34 34 34 33 33 31 34 35 33 33 33 34 36 39 39 41 43 44 43 39 38 42 40 43 41 45 43 41 41 41 41 42 44 28 28 27 25 26 26 24 22 20
34 34 34 33 33 32 30 34 35 33 33 32 32 34 37 38 39 40 40 43 47 32 34 36 37 41 41 46 46 43 41 41 43 34 28 27 27 26 27 28 26 25 23
34 33 33 32 32 32 31 34 34 32 31 31 31 32 33 35 39 36 41 48 46 39 41 43 39 33 41 41 48 46 41 41 41 43 35 29 28 27 27 28 28 28 27
33 33 32 31 31 31 32 34 33 31 30 29 29 30 31 33 35 36 36 36 43 40 41 40 41 37 34 36 40 43 42 40 41 41 39 38 33 30 28 28 29 30 29
34 33 32 30 30 30 32 34 33 31 29 29 28 28 28 30 33 36 40 39 43 47 41 45 44 39 39 38 34 41 41 40 41 39 41 40 38 33 30 28 28 30 29
33 33 32 30 30 28 32 34 33 30 29 28 27 27 27 28 30 33 34 40 40 43 46 45 44 42 46 39 38 36 41 39 39 38 38 39 40 40 41 37 31 29 31
33 32 32 30 29 27 32 33 33 29 28 28 27 27 27 28 29 31 33 34 37 39 45 45 47 47 44 42 42 40 39 40 42 36 36 38 35 38 38 37 33 30 30
33 32 31 30 30 29 32 32 32 29 27 27 26 26 26 26 28 31 33 33 32 36 41 40 48 48 45 41 41 41 41 45 43 37 36 38 35 37 36 36 34 32 31
33 32 31 31 30 30 32 32 31 28 27 26 25 25 25 25 26 29 31 34 36 35 34 37 38 38 39 41 42 45 47 43 39 39 38 43 36 39 36 36 35 32 30
35 34 33 31 30 32 31 32 31 28 27 26 25 25 25 26 27 26 26 30 35 37 39 39 43 43 40 41 39 43 51 49 47 41 39 41 40 40 38 39 38 34 31
35 34 33 32 31 31 32 31 31 28 27 26 25 25 26 26 26 25 24 26 30 35 38 41 42 40 40 43 43 46 45 45 43 46 42 41 43 40 44 41 41 38 37
Wind_Direction
305 300 295 285 291 286 282 273 253 257 260 260 254 255 254 253 251 240 234 235 206 185 164 164 161 156 155 147 142 139 138 141 136 131 166 228 249 268 46 55 55 53 47
307 301 293 291 286 290 284 277 261 255 258 258 255 250 255 252 253 251 247 182 204 196 175 178 173 168 164 157 149 148 147 149 163 141 129 172 248 256 34 65 57 51 43
314 304 298 293 291 285 285 280 268 252 262 260 258 249 251 253 252 249 252 244 233 213 205 195 185 187 177 162 157 155 154 179 207 161 142 132 226 247 87 77 75 59 32
319 309 299 294 291 286 287 277 276 265 256 262 261 252 250 251 248 247 244 244 237 235 225 204 202 197 197 169 163 162 156 176 230 213 162 139 136 123 109 98 87 60 45
320 314 306 296 294 290 291 288 282 268 256 256 257 260 252 249 248 245 245 245 239 236 235 222 215 207 197 173 172 166 163 160 199 215 163 140 132 128 121 111 99 82 86
322 318 313 304 294 288 287 290 279 274 262 256 254 258 256 253 250 245 243 239 237 235 236 231 228 231 210 179 182 175 169 183 166 165 156 155 140 138 134 128 120 111 109
325 322 319 311 302 291 285 283 286 274 267 266 253 255 256 252 253 248 239 237 239 233 236 235 232 233 233 185 196 207 183 189 188 176 164 161 150 145 144 137 134 129 119
325 324 325 318 310 297 289 282 280 279 271 264 261 247 252 252 253 245 240 239 240 238 235 234 232 233 233 232 233 189 220 206 199 185 173 169 159 155 152 147 142 138 130
323 323 323 323 318 306 293 285 279 274 271 265 266 247 254 248 249 251 244 240 240 235 233 233 232 232 233 231 233 229 215 214 207 202 185 179 168 163 161 160 154 148 144
328 325 320 314 320 317 302 291 283 277 271 266 269 255 256 246 242 250 250 243 243 238 234 234 232 232 233 232 233 229 224 205 211 214 217 184 182 171 168 167 164 162 155
329 327 321 312 310 317 313 300 287 279 273 266 258 261 256 251 248 248 252 243 242 240 237 236 234 232 231 233 233 230 227 218 214 236 229 189 181 187 185 174 170 170 163
328 327 324 317 312 311 314 310 296 282 275 267 264 260 255 250 253 242 246 251 240 238 236 237 235 234 232 233 234 233 227 223 218 223 238 187 187 220 197 195 183 174 172
325 325 325 320 311 308 308 312 305 290 277 270 263 260 256 252 256 250 247 248 240 236 238 238 234 234 234 234 235 234 231 217 209 215 218 198 194 194 209 198 190 186 180
323 322 323 321 313 308 306 310 309 298 284 273 267 260 257 255 249 250 244 241 248 236 235 236 234 234 235 234 236 235 235 225 217 207 194 194 196 201 206 203 198 192 187
324 321 318 319 315 311 309 310 308 302 290 278 271 262 260 258 255 253 245 245 251 236 233 234 236 234 234 235 236 237 236 233 231 212 195 197 201 203 200 200 200 197 196
326 323 321 319 318 316 315 313 309 302 296 284 275 268 259 259 258 256 249 247 249 245 235 236 237 239 235 236 236 237 237 237 237 236 211 205 204 207 203 202 202 200 198
325 324 321 321 320 317 317 316 311 303 297 291 281 273 263 261 257 256 255 245 239 251 242 241 242 239 238 236 236 237 237 238 238 235 223 217 210 209 206 203 204 203 201
329 325 321 323 322 320 321 319 313 304 297 294 288 279 270 262 256 261 258 243 241 245 245 243 242 243 240 240 237 236 237 238 239 238 235 225 222 215 211 208 207 205 204
331 327 323 324 321 321 321 320 315 306 298 294 293 285 274 264 258 259 254 251 238 244 243 246 242 243 245 244 240 236 236 238 239 240 238 238 237 232 223 214 210 209 209
331 328 323 321 321 318 322 321 318 310 303 300 295 291 283 270 262 259 255 255 246 239 245 243 241 239 242 244 245 236 237 238 239 241 242 241 241 238 231 230 223 216 215
332 329 327 321 323 320 325 323 319 313 308 303 298 292 288 277 270 263 260 251 249 242 239 242 242 242 241 241 243 243 240 238 241 241 242 244 244 246 247 248 243 230 219
330 331 332 326 324 319 327 324 322 313 312 307 302 299 291 285 276 271 263 256 249 243 238 242 241 243 241 243 247 247 244 240 240 241 241 244 243 245 247 249 245 238 227
330 331 332 330 328 325 327 325 325 319 312 309 306 303 298 293 284 278 269 261 256 247 244 244 243 243 245 242 245 246 249 245 242 241 241 246 245 248 251 252 249 244 241
335 333 332 331 330 329 328 328 326 321 315 309 306 306 305 300 296 287 274 262 258 256 254 249 248 246 248 248 249 249 250 255 241 244 242 247 249 251 253 255 254 250 245
341 337 335 333 331 333 330 330 329 321 318 312 311 311 309 306 304 298 281 271 264 260 258 255 255 253 254 251 251 248 248 250 250 251 247 248 250 253 256 257 258 255 252
343 341 337 335 333 332 332 331 331 325 321 317 317 315 317 314 311 306 293 281 269 266 261 256 256 255 254 251 249 247 247 248 249 250 253 250 252 254 258 259 258 259 260